SCP
0 0 0 0 0 -0 0 -0 -0 0 -0 0 0 0 -0 -0 -0 -0 -0 -0 -0 -0 -0 -0 -0 -0 -0 -0 -0 -0 -0 -0 -0 0 0 0 0 0 -0 0 0 0 0 0
-0 -0 -0 0 0 0 0 -0 0 -0 0 0 0 0 -0 -0 -0 -0 -0 -0 -0 -0 -0 -0 -0 -0 -0 -0 -0 -0 0 0 -0 0 0 0 0 0 0 0 0 0 0 0
0 -0 0 -0 0 0 0 -0 -0 0 -0 0 0 0 0 0 0 -0 -0 -0 -0 -0 -0 -0 -0 -0 -0 -0 -0 -0 -0 0 0 -0 0 0 0 0 0 0 0 0 0 0
-0 0 -0 0 0 0 0 -0 -0 -0 -0 0 -0 -0 -0 -0 -0 -0 -0 -0 -0 -0 -0 -0 -0 -0 -0 -0 -0 -0 -0 0 0 0 0 0 0 0 0 0 0 0 0 0
0 0 0 0 0 -0 -0 -0 0 0 0 0 0 0 0 0 -0 -0 -0 -0 -0 -0 -0 -0 -0 -0 -0 -0 -0 -0 0 -0 -0 0 0 0 0 0 0 0 0 0 0 0
0 0 0 0 0 -0 0 0 0 0 0 0 0 0 0 0 -0 -0 -0 -0 -0 -0 -0 -0 -0 -0 0 0 0 0 0 0 0 0 0 0 0 0 0 0 0 0 0 0
0 0 0 0 0 0 0 0 0 0 0 0 0 0 -0 0 0 -0 -0 -0 -0 -0 -0 -0 -0 0 0 0 0 0 0 0 0 0 0 0 0 0 0 0 0 0 0 0
0 0 -0 0 0 0 0 0 0 0 0 0 0 0 0 0 0 0 0 0 0 0 0 0 0 0 0 0 1 0 0 0 0 0 0 0 0 0 0 0 0 0 0 0
0 0 0 0 0 0 0 0 0 0 0 0 0 0 0 0 0 0 0 0 1 1 1 1 0 0 1 0 0 0 0 0 0 0 0 0 0 0 0 0 0 0 0 0
0 0 0 0 0 0 0 0 0 0 0 0 0 0 0 0 0 0 0 0 0 0 0 0 0 0 0 0 0 0 0 0 0 0 0 0 0 0 0 0 0 0 0 0
0 0 -0 0 0 0 0 0 0 0 0 0 0 0 1 0 0 0 0 0 0 0 0 0 0 0 0 0 0 0 0 0 0 0 0 0 0 0 0 0 0 0 0 0
0 0 0 0 0 0 0 0 0 0 0 0 0 0 0 0 0 0 0 0 0 0 0 0 0 0 0 0 0 0 0 0 0 0 0 0 0 0 0 0 0 0 0 0
0 0 0 0 0 0 0 0 0 0 0 0 0 0 0 0 0 0 0 0 0 0 0 0 0 0 0 0 0 0 0 0 0 0 0 0 0 0 0 0 0 0 0 0
0 0 0 0 0 0 0 0 0 0 0 0 0 0 0 0 0 0 0 0 0 0 0 0 0 0 0 0 0 0 0 0 0 0 0 0 0 0 0 0 0 0 0 0
0 0 0 0 0 0 0 0 0 0 0 0 0 0 0 0 0 0 0 0 0 0 0 0 0 0 0 0 0 0 0 0 0 0 0 0 0 0 0 0 0 0 0 0
0 0 0 0 0 0 0 0 0 0 1 1 1 1 1 0 0 0 0 0 0 0 0 0 0 0 0 0 0 0 0 0 0 0 0 0 0 0 0 0 0 0 0 0
0 0 0 0 0 0 0 0 0 0 1 0 0 0 0 0 0 0 0 -0 0 0 0 0 0 0 0 0 0 0 0 0 0 0 0 0 0 0 0 0 0 0 0 0
0 0 0 0 0 0 0 0 0 1 1 1 1 1 0 0 0 0 -0 -0 0 0 0 0 0 0 0 0 0 0 0 0 0 0 0 0 0 0 0 0 0 0 0 0
0 0 0 0 0 0 0 0 0 0 1 0 1 0 0 0 0 -0 -0 -0 0 0 0 0 0 0 0 0 0 0 0 0 0 0 0 0 0 0 0 0 0 0 0 0
0 0 0 0 0 0 0 0 0 0 0 0 1 0 1 1 1 -0 0 0 0 0 0 0 0 0 0 0 0 0 0 0 0 0 0 0 0 0 0 0 0 0 0 0
-0 0 0 0 0 0 0 0 0 0 0 0 1 1 0 0 0 0 0 0 0 0 0 0 0 0 0 0 0 0 0 0 0 0 0 0 0 0 0 0 0 0 0 0
0 0 0 0 0 0 0 0 0 0 0 0 0 1 0 0 0 0 0 0 0 0 0 0 0 0 0 0 0 0 0 0 0 0 0 0 0 0 0 0 0 0 0 0
0 0 0 0 0 0 0 0 0 0 0 0 0 0 0 0 0 0 0 0 0 0 0 0 0 0 0 0 0 0 0 0 0 0 0 0 0 0 0 0 0 0 0 0
0 0 0 0 0 0 0 0 0 0 0 0 0 0 0 0 0 0 0 0 0 0 0 0 0 0 0 0 0 0 0 0 0 0 0 0 0 0 0 0 0 0 0 0
0 0 0 0 0 0 0 0 0 0 0 0 0 0 0 0 0 0 0 0 0 0 0 0 0 0 0 0 0 0 0 0 0 0 0 0 0 0 0 0 0 0 0 0
0 0 0 0 0 0 0 0 0 0 0 0 0 0 0 0 0 0 0 0 0 0 0 0 0 0 0 0 0 0 0 0 0 0 0 0 0 0 0 0 0 0 -0 0
Wind_Speed_500mb
20 5 12 22 14 2 24 24 19 9 11 2 12 4 33 49 44 42 49 54 62 63 66 63 64 60 62 58 56 54 46 43 45 42 48 36 29 22 20 23 20 21 20 20
2 17 28 20 14 11 11 17 2 6 3 6 3 21 29 40 52 56 49 54 66 74 69 65 65 60 61 62 61 60 50 40 41 42 52 40 34 27 18 16 18 24 26 23
14 22 12 21 13 13 7 14 18 9 10 4 0 11 12 16 36 43 49 65 63 71 77 66 66 64 63 65 66 64 53 46 40 41 45 42 35 36 33 29 25 26 29 31
11 22 20 19 9 11 12 23 24 22 17 7 10 8 14 25 17 26 50 57 71 75 76 73 71 66 65 61 61 63 54 51 46 40 43 44 38 31 25 25 23 21 20 23
16 10 10 7 13 26 20 19 11 14 7 5 4 2 12 13 32 39 43 58 75 85 77 76 74 64 53 54 57 63 57 55 49 40 37 45 35 30 27 26 24 20 16 19
15 11 7 14 8 38 15 22 18 9 6 6 15 13 11 12 52 42 38 61 72 86 86 80 73 66 56 54 53 58 59 59 52 48 41 43 41 36 30 26 23 22 24 23
10 9 7 12 4 12 18 16 6 3 3 13 4 14 23 11 11 49 43 51 67 77 85 84 78 72 63 59 55 58 62 60 54 52 45 47 42 36 30 28 28 23 27 19
7 19 12 10 12 17 27 18 13 15 10 5 10 11 11 20 9 25 32 40 55 68 71 80 78 70 67 64 59 61 61 65 59 56 49 50 47 43 38 39 33 26 23 16
12 13 7 8 8 15 7 12 13 13 3 6 8 11 7 25 25 39 39 35 29 40 51 52 61 64 68 71 65 62 64 67 62 56 44 43 44 36 29 24 18 19 19 16
7 8 10 7 5 2 13 9 5 5 8 7 9 8 9 5 15 22 29 35 34 30 33 47 53 58 61 69 69 66 68 68 50 36 32 32 29 26 23 23 18 12 13 18
9 13 21 5 7 13 1 4 11 10 9 12 6 11 8 14 20 22 30 38 36 34 28 22 33 58 63 58 53 55 49 37 34 34 26 22 24 24 23 22 23 22 19 18
4 7 13 27 8 10 4 4 12 10 9 1 7 9 12 17 29 43 38 43 42 32 24 11 5 26 37 34 24 32 42 41 37 37 33 31 26 24 26 17 20 17 16 14
8 1 4 14 13 9 10 6 9 9 6 11 11 9 14 25 28 37 50 50 45 44 31 11 22 26 28 26 29 27 27 26 25 24 21 17 13 9 8 13 10 5 5 5
8 6 10 12 8 4 7 11 7 8 8 10 11 16 23 25 20 20 27 36 31 38 48 43 30 24 20 21 20 22 22 21 20 20 19 10 8 8 9 8 6 7 5 7
8 6 5 8 18 15 13 11 14 7 2 8 11 15 29 29 25 25 22 34 40 38 39 34 31 25 21 20 20 20 20 17 15 14 12 6 3 3 3 2 4 6 8 13
4 7 8 12 9 25 14 23 12 8 10 11 14 9 15 16 22 23 28 39 36 33 32 32 25 20 17 18 17 17 15 12 8 7 4 3 4 1 5 8 10 11 15 16
5 9 6 10 5 5 15 16 15 4 9 11 7 10 19 15 24 31 38 36 35 36 34 26 19 18 17 16 14 13 9 6 6 7 6 3 3 9 13 17 17 17 20 22
6 7 6 6 2 7 14 7 5 13 8 12 20 13 19 26 23 34 36 38 36 35 28 24 22 21 16 13 11 8 7 5 6 8 8 10 12 15 21 24 22 22 23 24
8 10 8 8 6 5 8 12 5 5 5 12 23 20 21 24 13 16 35 36 31 30 29 27 22 15 8 6 6 5 8 12 14 14 15 17 18 19 23 23 24 25 25 21
10 14 9 5 10 13 16 9 12 3 9 29 18 28 38 39 10 8 44 37 30 29 29 31 27 20 14 13 11 10 9 14 18 18 16 15 17 22 28 32 34 32 28 29
8 8 7 3 4 9 7 10 15 9 13 25 31 46 47 16 14 17 42 41 40 35 36 33 24 14 12 15 15 13 11 11 14 11 13 17 22 29 35 39 40 37 33 37
6 7 2 3 5 5 10 12 13 11 10 17 22 42 56 34 24 17 45 47 50 48 43 34 25 24 20 16 18 17 17 13 16 17 20 25 30 36 41 45 44 37 37 39
3 10 9 12 10 8 7 7 14 19 24 18 16 19 27 41 19 30 54 53 53 47 41 35 28 19 18 20 22 23 20 20 23 27 27 30 37 36 40 41 42 36 39 40
3 6 4 4 5 3 6 22 20 25 22 21 25 32 38 32 34 40 49 54 52 49 39 26 22 21 23 23 25 30 29 32 27 27 32 35 38 34 34 34 33 33 37 41
7 10 7 4 5 13 17 31 33 28 23 21 19 19 18 20 32 39 50 53 49 42 32 25 19 20 21 25 26 25 25 26 28 31 35 37 39 36 34 35 31 33 37 41
16 12 9 10 31 18 37 36 34 30 25 21 20 21 19 19 21 34 38 42 44 39 30 26 25 27 25 25 27 24 23 27 30 34 36 38 39 37 39 36 36 41 48 43
Wind_Direction_500mb
188 153 198 225 189 8 148 168 150 205 190 181 192 281 193 197 202 208 212 211 211 206 215 211 208 206 205 206 209 207 203 203 212 209 198 198 201 201 213 234 221 218 219 223
129 240 231 214 128 115 129 141 108 266 3 110 234 252 212 201 212 211 209 211 213 212 208 209 208 210 209 209 209 209 210 210 203 204 198 202 208 205 212 228 219 228 226 242
189 246 253 176 156 146 150 194 181 185 122 37 346 308 200 225 227 227 219 224 214 205 208 202 206 210 211 215 211 210 210 206 198 200 199 206 208 215 226 237 241 240 244 246
226 271 263 155 173 138 176 208 189 145 142 214 159 258 244 218 235 231 224 209 209 207 206 204 205 208 214 218 216 211 214 208 194 193 207 207 207 219 234 237 240 252 248 264
241 306 311 148 204 171 228 168 151 150 64 342 275 56 261 207 227 231 215 204 204 212 211 208 208 208 209 214 215 213 216 209 205 203 209 214 218 237 248 244 248 253 256 249
250 253 227 223 182 185 75 100 43 52 31 295 199 169 266 191 218 229 212 208 198 206 211 212 213 211 210 214 215 213 215 212 209 208 217 222 226 236 239 240 246 252 252 239
295 216 254 230 152 73 101 104 63 23 248 236 217 161 248 241 254 219 196 202 203 204 210 214 212 213 208 213 215 212 210 213 207 212 219 224 228 236 241 251 245 249 248 247
178 314 183 169 172 168 172 170 161 195 204 225 92 228 278 320 329 174 182 195 203 203 206 214 214 215 215 210 215 211 214 209 210 216 225 228 233 238 245 247 241 244 239 224
155 268 275 214 210 142 204 183 194 116 50 105 206 278 62 43 38 58 68 107 133 180 190 199 203 210 212 214 214 214 209 212 216 218 217 224 231 232 232 221 205 208 213 223
275 295 210 280 176 149 150 170 77 5 164 244 299 276 199 53 95 89 78 79 93 127 159 184 192 196 204 210 211 212 209 213 213 217 230 229 213 215 202 189 194 223 257 278
149 146 277 12 199 194 18 280 42 119 133 166 187 253 345 162 136 109 84 91 99 101 110 131 179 188 194 193 201 204 199 201 217 223 202 198 195 192 194 202 210 237 257 268
201 170 211 229 273 304 178 229 146 126 251 121 157 267 99 134 137 115 115 117 114 115 109 94 122 172 189 202 238 236 233 224 214 207 200 201 207 215 212 233 231 236 261 275
188 351 13 351 352 357 68 339 124 117 76 186 144 256 133 149 141 144 143 143 150 141 149 142 213 180 163 164 163 164 172 185 191 193 205 217 226 236 246 247 262 256 259 295
128 101 150 187 224 207 5 329 103 132 122 177 214 166 173 166 163 170 151 154 163 160 146 148 167 165 147 148 164 175 179 185 183 179 168 186 197 221 251 261 275 266 276 339
102 110 107 57 108 87 59 2 4 95 21 152 224 167 176 175 173 178 161 155 155 150 153 167 180 182 176 166 153 152 148 157 175 185 194 203 211 201 218 293 325 308 321 320
29 160 129 49 84 74 61 21 18 38 89 58 75 80 151 146 150 166 172 173 172 175 184 188 192 185 159 150 150 146 151 166 166 174 151 136 138 338 310 301 301 303 314 313
87 121 83 181 297 50 30 342 342 124 64 146 190 169 138 137 167 186 190 193 195 193 195 197 183 162 154 139 126 115 125 154 159 157 172 207 285 324 327 319 310 308 305 298
119 83 68 146 83 75 232 295 284 74 76 94 96 134 149 154 188 199 200 202 207 207 202 186 170 155 147 158 156 156 154 189 210 225 243 267 288 308 319 319 317 302 303 305
37 118 67 117 77 344 323 265 183 104 291 190 148 150 140 147 146 219 215 209 220 211 188 171 159 166 177 191 207 237 278 275 268 272 283 285 290 307 317 310 310 309 306 304
53 68 107 119 126 188 225 221 210 73 280 203 188 163 146 148 142 240 196 198 189 194 178 175 177 184 207 213 228 259 282 293 292 282 283 282 297 312 313 315 311 306 299 303
3 5 98 81 162 281 250 175 132 107 236 178 178 163 161 186 165 199 185 182 189 186 184 184 185 200 221 235 245 247 269 316 314 280 284 292 297 303 311 311 310 301 296 300
152 125 166 87 69 271 174 111 162 213 160 182 188 189 184 181 201 191 192 193 197 198 193 191 202 209 213 234 251 262 278 313 298 292 296 298 301 303 306 305 301 290 293 296
226 176 183 166 215 274 285 235 217 167 149 153 158 178 198 193 215 190 199 205 207 197 195 203 208 219 234 250 258 266 283 278 272 268 275 292 299 304 307 300 298 287 293 287
246 175 122 74 227 258 106 141 152 174 172 166 172 176 188 195 191 198 200 197 192 194 196 201 215 234 244 249 263 272 269 266 262 267 285 295 301 304 306 301 297 292 287 291
207 138 149 300 348 110 132 138 137 133 141 151 153 163 171 195 201 203 193 192 196 196 196 207 224 242 257 262 268 274 266 262 271 284 291 294 298 304 303 299 292 293 290 297
188 178 161 214 194 174 179 157 149 147 148 156 171 184 199 215 223 213 212 212 204 200 209 223 238 246 257 267 282 285 273 268 277 284 289 295 303 306 309 309 302 308 306 296
Wind_Speed_850mb
20 5 12 22 14 2 24 24 19 9 11 2 12 4 33 49 44 42 49 54 62 63 66 63 64 60 62 58 56 54 46 43 45 42 48 36 29 22 20 23 20 21 20 20
2 17 28 20 14 11 11 17 2 6 3 6 3 21 29 40 52 56 49 54 66 74 69 65 65 60 61 62 61 60 50 40 41 42 52 40 34 27 18 16 18 24 26 23
14 22 12 21 13 13 7 14 18 9 10 4 0 11 12 16 36 43 49 65 63 71 77 66 66 64 63 65 66 64 53 46 40 41 45 42 35 36 33 29 25 26 29 31
11 22 20 19 9 11 12 23 24 22 17 7 10 8 14 25 17 26 50 57 71 75 76 73 71 66 65 61 61 63 54 51 46 40 43 44 38 31 25 25 23 21 20 23
16 10 10 7 13 26 20 19 11 14 7 5 4 2 12 13 32 39 43 58 75 85 77 76 74 64 53 54 57 63 57 55 49 40 37 45 35 30 27 26 24 20 16 19
15 11 7 14 8 38 15 22 18 9 6 6 15 13 11 12 52 42 38 61 72 86 86 80 73 66 56 54 53 58 59 59 52 48 41 43 41 36 30 26 23 22 24 23
10 9 7 12 4 12 18 16 6 3 3 13 4 14 23 11 11 49 43 51 67 77 85 84 78 72 63 59 55 58 62 60 54 52 45 47 42 36 30 28 28 23 27 19
7 19 12 10 12 17 27 18 13 15 10 5 10 11 11 20 9 25 32 40 55 68 71 80 78 70 67 64 59 61 61 65 59 56 49 50 47 43 38 39 33 26 23 16
12 13 7 8 8 15 7 12 13 13 3 6 8 11 7 25 25 39 39 35 29 40 51 52 61 64 68 71 65 62 64 67 62 56 44 43 44 36 29 24 18 19 19 16
7 8 10 7 5 2 13 9 5 5 8 7 9 8 9 5 15 22 29 35 34 30 33 47 53 58 61 69 69 66 68 68 50 36 32 32 29 26 23 23 18 12 13 18
9 13 21 5 7 13 1 4 11 10 9 12 6 11 8 14 20 22 30 38 36 34 28 22 33 58 63 58 53 55 49 37 34 34 26 22 24 24 23 22 23 22 19 18
4 7 13 27 8 10 4 4 12 10 9 1 7 9 12 17 29 43 38 43 42 32 24 11 5 26 37 34 24 32 42 41 37 37 33 31 26 24 26 17 20 17 16 14
8 1 4 14 13 9 10 6 9 9 6 11 11 9 14 25 28 37 50 50 45 44 31 11 22 26 28 26 29 27 27 26 25 24 21 17 13 9 8 13 10 5 5 5
8 6 10 12 8 4 7 11 7 8 8 10 11 16 23 25 20 20 27 36 31 38 48 43 30 24 20 21 20 22 22 21 20 20 19 10 8 8 9 8 6 7 5 7
8 6 5 8 18 15 13 11 14 7 2 8 11 15 29 29 25 25 22 34 40 38 39 34 31 25 21 20 20 20 20 17 15 14 12 6 3 3 3 2 4 6 8 13
4 7 8 12 9 25 14 23 12 8 10 11 14 9 15 16 22 23 28 39 36 33 32 32 25 20 17 18 17 17 15 12 8 7 4 3 4 1 5 8 10 11 15 16
5 9 6 10 5 5 15 16 15 4 9 11 7 10 19 15 24 31 38 36 35 36 34 26 19 18 17 16 14 13 9 6 6 7 6 3 3 9 13 17 17 17 20 22
6 7 6 6 2 7 14 7 5 13 8 12 20 13 19 26 23 34 36 38 36 35 28 24 22 21 16 13 11 8 7 5 6 8 8 10 12 15 21 24 22 22 23 24
8 10 8 8 6 5 8 12 5 5 5 12 23 20 21 24 13 16 35 36 31 30 29 27 22 15 8 6 6 5 8 12 14 14 15 17 18 19 23 23 24 25 25 21
10 14 9 5 10 13 16 9 12 3 9 29 18 28 38 39 10 8 44 37 30 29 29 31 27 20 14 13 11 10 9 14 18 18 16 15 17 22 28 32 34 32 28 29
8 8 7 3 4 9 7 10 15 9 13 25 31 46 47 16 14 17 42 41 40 35 36 33 24 14 12 15 15 13 11 11 14 11 13 17 22 29 35 39 40 37 33 37
6 7 2 3 5 5 10 12 13 11 10 17 22 42 56 34 24 17 45 47 50 48 43 34 25 24 20 16 18 17 17 13 16 17 20 25 30 36 41 45 44 37 37 39
3 10 9 12 10 8 7 7 14 19 24 18 16 19 27 41 19 30 54 53 53 47 41 35 28 19 18 20 22 23 20 20 23 27 27 30 37 36 40 41 42 36 39 40
3 6 4 4 5 3 6 22 20 25 22 21 25 32 38 32 34 40 49 54 52 49 39 26 22 21 23 23 25 30 29 32 27 27 32 35 38 34 34 34 33 33 37 41
7 10 7 4 5 13 17 31 33 28 23 21 19 19 18 20 32 39 50 53 49 42 32 25 19 20 21 25 26 25 25 26 28 31 35 37 39 36 34 35 31 33 37 41
16 12 9 10 31 18 37 36 34 30 25 21 20 21 19 19 21 34 38 42 44 39 30 26 25 27 25 25 27 24 23 27 30 34 36 38 39 37 39 36 36 41 48 43
Wind_Direction_850mb
188 153 198 225 189 8 148 168 150 205 190 181 192 281 193 197 202 208 212 211 211 206 215 211 208 206 205 206 209 207 203 203 212 209 198 198 201 201 213 234 221 218 219 223
129 240 231 214 128 115 129 141 108 266 3 110 234 252 212 201 212 211 209 211 213 212 208 209 208 210 209 209 209 209 210 210 203 204 198 202 208 205 212 228 219 228 226 242
189 246 253 176 156 146 150 194 181 185 122 37 346 308 200 225 227 227 219 224 214 205 208 202 206 210 211 215 211 210 210 206 198 200 199 206 208 215 226 237 241 240 244 246
226 271 263 155 173 138 176 208 189 145 142 214 159 258 244 218 235 231 224 209 209 207 206 204 205 208 214 218 216 211 214 208 194 193 207 207 207 219 234 237 240 252 248 264
241 306 311 148 204 171 228 168 151 150 64 342 275 56 261 207 227 231 215 204 204 212 211 208 208 208 209 214 215 213 216 209 205 203 209 214 218 237 248 244 248 253 256 249
250 253 227 223 182 185 75 100 43 52 31 295 199 169 266 191 218 229 212 208 198 206 211 212 213 211 210 214 215 213 215 212 209 208 217 222 226 236 239 240 246 252 252 239
295 216 254 230 152 73 101 104 63 23 248 236 217 161 248 241 254 219 196 202 203 204 210 214 212 213 208 213 215 212 210 213 207 212 219 224 228 236 241 251 245 249 248 247
178 314 183 169 172 168 172 170 161 195 204 225 92 228 278 320 329 174 182 195 203 203 206 214 214 215 215 210 215 211 214 209 210 216 225 228 233 238 245 247 241 244 239 224
155 268 275 214 210 142 204 183 194 116 50 105 206 278 62 43 38 58 68 107 133 180 190 199 203 210 212 214 214 214 209 212 216 218 217 224 231 232 232 221 205 208 213 223
275 295 210 280 176 149 150 170 77 5 164 244 299 276 199 53 95 89 78 79 93 127 159 184 192 196 204 210 211 212 209 213 213 217 230 229 213 215 202 189 194 223 257 278
149 146 277 12 199 194 18 280 42 119 133 166 187 253 345 162 136 109 84 91 99 101 110 131 179 188 194 193 201 204 199 201 217 223 202 198 195 192 194 202 210 237 257 268
201 170 211 229 273 304 178 229 146 126 251 121 157 267 99 134 137 115 115 117 114 115 109 94 122 172 189 202 238 236 233 224 214 207 200 201 207 215 212 233 231 236 261 275
188 351 13 351 352 357 68 339 124 117 76 186 144 256 133 149 141 144 143 143 150 141 149 142 213 180 163 164 163 164 172 185 191 193 205 217 226 236 246 247 262 256 259 295
128 101 150 187 224 207 5 329 103 132 122 177 214 166 173 166 163 170 151 154 163 160 146 148 167 165 147 148 164 175 179 185 183 179 168 186 197 221 251 261 275 266 276 339
102 110 107 57 108 87 59 2 4 95 21 152 224 167 176 175 173 178 161 155 155 150 153 167 180 182 176 166 153 152 148 157 175 185 194 203 211 201 218 293 325 308 321 320
29 160 129 49 84 74 61 21 18 38 89 58 75 80 151 146 150 166 172 173 172 175 184 188 192 185 159 150 150 146 151 166 166 174 151 136 138 338 310 301 301 303 314 313
87 121 83 181 297 50 30 342 342 124 64 146 190 169 138 137 167 186 190 193 195 193 195 197 183 162 154 139 126 115 125 154 159 157 172 207 285 324 327 319 310 308 305 298
119 83 68 146 83 75 232 295 284 74 76 94 96 134 149 154 188 199 200 202 207 207 202 186 170 155 147 158 156 156 154 189 210 225 243 267 288 308 319 319 317 302 303 305
37 118 67 117 77 344 323 265 183 104 291 190 148 150 140 147 146 219 215 209 220 211 188 171 159 166 177 191 207 237 278 275 268 272 283 285 290 307 317 310 310 309 306 304
53 68 107 119 126 188 225 221 210 73 280 203 188 163 146 148 142 240 196 198 189 194 178 175 177 184 207 213 228 259 282 293 292 282 283 282 297 312 313 315 311 306 299 303
3 5 98 81 162 281 250 175 132 107 236 178 178 163 161 186 165 199 185 182 189 186 184 184 185 200 221 235 245 247 269 316 314 280 284 292 297 303 311 311 310 301 296 300
152 125 166 87 69 271 174 111 162 213 160 182 188 189 184 181 201 191 192 193 197 198 193 191 202 209 213 234 251 262 278 313 298 292 296 298 301 303 306 305 301 290 293 296
226 176 183 166 215 274 285 235 217 167 149 153 158 178 198 193 215 190 199 205 207 197 195 203 208 219 234 250 258 266 283 278 272 268 275 292 299 304 307 300 298 287 293 287
246 175 122 74 227 258 106 141 152 174 172 166 172 176 188 195 191 198 200 197 192 194 196 201 215 234 244 249 263 272 269 266 262 267 285 295 301 304 306 301 297 292 287 291
207 138 149 300 348 110 132 138 137 133 141 151 153 163 171 195 201 203 193 192 196 196 196 207 224 242 257 262 268 274 266 262 271 284 291 294 298 304 303 299 292 293 290 297
188 178 161 214 194 174 179 157 149 147 148 156 171 184 199 215 223 213 212 212 204 200 209 223 238 246 257 267 282 285 273 268 277 284 289 295 303 306 309 309 302 308 306 296